This demonstration page uses our WeatherBlox Daily Observations layout. Learn more.

Left ArrowRight Arrow

38.20091, -84.87328

Hourly Observations for August 5, 2021

Temp ( °F °C ) Dew Point ( °F °C ) Humidity (%) Winds ( mph kmh ) Pressure ( in mb ) Visibility ( mi km ) Precip ( " mm )
12:53 am 00:53 Clear 66 18.9 63 17.2 90 90 Calm 30.08 1019 10 16 0.00 0.00
1:53 am 01:53 Clear 65 18.3 62 16.7 90 90 Calm 30.08 1019 10 16 0.00 0.00
2:53 am 02:53 Clear 62 16.7 61 16.1 96 96 Calm 30.07 1018 10 16 0.00 0.00
3:53 am 03:53 Clear 62 16.7 60 15.6 93 93 Calm 30.07 1018 8 13 0.00 0.00
4:53 am 04:53 Clear 62 16.7 60 15.6 93 93 Calm 30.07 1018 8 13 0.00 0.00
5:53 am 05:53 Clear 61 16.1 59 15 93 93 Calm 30.08 1019 10 16 0.00 0.00
6:53 am 06:53 Sunny 60 15.6 58 14.4 93 93 Calm 30.10 1019 9 14 0.00 0.00
7:53 am 07:53 Sunny 63 17.2 60 15.6 90 90 Calm 30.11 1020 9 14 0.00 0.00
8:53 am 08:53 Sunny 69 20.6 63 17.2 81 81 Calm 30.12 1020 10 16 0.00 0.00
9:53 am 09:53 Sunny 73 22.8 64 17.8 74 74 Calm 30.13 1020 10 16 0.00 0.00
10:53 am 10:53 Sunny 78 25.6 64 17.8 62 62 Calm 30.13 1020 10 16 0.00 0.00
11:53 am 11:53 Sunny 81 27.2 65 18.3 58 58 VRB 3 6 30.12 1020 10 16 0.00 0.00
12:53 pm 12:53 Mostly Cloudy 80 26.7 63 17.2 56 56 VRB 3 6 30.11 1020 10 16 0.00 0.00
1:53 pm 13:53 Mostly Cloudy 85 29.4 64 17.8 50 50 S 8 13 30.09 1019 10 16 0.00 0.00
2:53 pm 14:53 Mostly Sunny 85 29.4 61 16.1 45 45 S 9 15 30.08 1019 10 16 0.00 0.00
3:53 pm 15:53 Mostly Sunny 86 30 60 15.6 42 42 SSW 10 17 30.06 1018 10 16 0.00 0.00
4:53 pm 16:53 Sunny 85 29.4 59 15 42 42 SW 9 15 30.06 1018 10 16 0.00 0.00
5:53 pm 17:53 Sunny 85 29.4 60 15.6 43 43 S 8 13 30.06 1018 10 16 0.00 0.00
6:53 pm 18:53 Sunny 83 28.3 60 15.6 46 46 SSW 9 15 30.06 1018 10 16 0.00 0.00
7:53 pm 19:53 Sunny 80 26.7 62 16.7 54 54 SW 6 9 30.06 1018 10 16 0.00 0.00
8:53 pm 20:53 Clear 75 23.9 63 17.2 66 66 WSW 3 6 30.07 1018 10 16 0.00 0.00
9:53 pm 21:53 Clear 69 20.6 63 17.2 81 81 SW 5 7 30.08 1019 10 16 0.00 0.00
10:53 pm 22:53 Clear 70 21.1 62 16.7 76 76 WSW 3 6 30.09 1019 10 16 0.00 0.00
11:53 pm 23:53 Clear 68 20 62 16.7 81 81 Calm 30.09 1019 10 16 0.00 0.00

Powered by AerisWeather